This is the latest recevied weather packets stored in our database for station/object LRCV. If no packets are shown the sender has not sent any weather packets the latest 10 day(s).
| Time | Temp. | Humidity | Pressure | Rain* | Wind** | Luminosity | Snow |
|---|---|---|---|---|---|---|---|
| 1777897121 | 22.78° C | 38% | 1016 hPa | - | - | - | - |
| 1777896221 | 22.78° C | 38% | 1016 hPa | - | - | - | - |
| 1777895321 | 22.78° C | 33% | 1016 hPa | - | - | - | - |
| 1777894421 | 22.78° C | 33% | 1016 hPa | - | - | - | - |
| 1777893556 | 22.78° C | 33% | 1016 hPa | - | - | - | - |
| 1777892622 | 22.78° C | 33% | 1016 hPa | - | - | - | - |
| 1777891721 | 22.22° C | 36% | 1017 hPa | - | - | - | - |
| 1777890822 | 22.22° C | 36% | 1017 hPa | - | - | - | - |
| 1777889929 | 22.22° C | 41% | 1017 hPa | - | - | - | - |
| 1777889021 | 22.22° C | 41% | 1017 hPa | - | - | - | - |
| 1777888121 | 20° C | 40% | 1017 hPa | - | - | - | - |
| 1777887221 | 20° C | 40% | 1017 hPa | - | - | - | - |
| 1777886322 | 18.89° C | 49% | 1018 hPa | - | - | - | - |
| 1777885421 | 18.89° C | 49% | 1018 hPa | - | - | - | - |
| 1777884551 | 17.22° C | 52% | 1018 hPa | - | - | - | - |
| 1777883622 | 17.22° C | 52% | 1018 hPa | - | - | - | - |
| 1777882721 | 15° C | 55% | 1018 hPa | - | - | - | - |
| 1777881821 | 15° C | 55% | 1018 hPa | - | - | - | - |
| 1777880922 | 13.89° C | 55% | 1018 hPa | - | - | - | - |
| 1777880021 | 13.89° C | 55% | 1018 hPa | - | - | - | - |
| 1777879122 | 12.22° C | 63% | 1018 hPa | - | - | - | - |
| 1777878223 | 12.22° C | 63% | 1018 hPa | - | - | - | - |
| 1777877321 | 11.11° C | 62% | 1018 hPa | - | - | - | - |
| 1777876422 | 11.11° C | 62% | 1018 hPa | - | - | - | - |
| 1777875523 | 10° C | 71% | 1018 hPa | - | - | - | - |
* Rain since midnight (hover to see other rain measurements)
** Current wind speed in m/s (hover to see current wind gust speed)